Tracking 29932 objects as of 3-Dec-2024
HD Live streaming from Space Station
objects crossing your sky now

STARLINK-11227

Track STARLINK-11227 now!
10-day predictions
STARLINK-11227 is classified as:


NORAD ID: 60303
Int'l Code: 2024-133C
Perigee: 365.7 km
Apogee: 368.0 km
Inclination: 53.2 °
Period: 91.7 minutes
Semi major axis: 6737 km
RCS: Unknown
Launch date: July 28, 2024
Source: United States (US)
Launch site: AIR FORCE WESTERN TEST RANGE (AFWTR)
Your satellite tracking list
Your tracking list is empty




NASA's NSSDC Master Catalog

Two Line Element Set (TLE):
1 60303U 24133C   24338.22044213 -.00003043  00000-0 -20263-4 0  9992
2 60303  53.1602 261.2110 0001711  78.0452 282.0758 15.69702394 21337
Source of the keplerian elements: AFSPC